Date String (YYYY-MM-DD hh:mm:ss) UTC,Instrument flags,Ambient pressure (hPa),Sample flow (lpm),Bypass flow (lpm),Sample temperature (°C),Ambient temperature (°C),ASC tube jacket temperature (°C),LED temperature (°C),Box temperature (°C),Sample RH (%),Span deviation,Mass concentration (μg/m³),Mass concentration (μg/m³),Mass concentration (μg/m³)
DateTimeUTC,F1_M11,P_M11,Q1_M11,Q2_M11,T1_M11,T2_M11,T3_M11,T4_M11,T5_M11,U1_M11,ZSPAN_M11,X0_M11,X2_M11,X1_M11
2022-05-07 06:00:00,,0821.2,4.99,0.00,29.4,27.7,00.0,38.5,31.2,11.3,0000.0,0009.15,0003.57,0002.01
2022-05-07 06:01:00,,0821.2,5.00,0.00,29.5,27.9,00.0,38.4,31.2,11.2,0000.0,0009.27,0003.59,0002.01
2022-05-07 06:02:00,,0821.2,5.01,0.00,29.5,28.0,00.0,38.4,31.2,11.0,0000.0,0008.73,0003.57,0002.01
2022-05-07 06:03:00,,0821.2,5.01,0.00,29.5,28.2,00.0,38.4,31.2,11.3,0000.0,0008.61,0003.57,0001.99
2022-05-07 06:04:00,,0821.2,4.99,0.00,29.5,28.3,00.0,38.4,31.3,12.8,0000.0,0008.72,0003.57,0002.00
2022-05-07 06:05:00,,0821.2,4.99,0.00,29.5,28.3,00.0,38.5,31.3,13.0,0000.0,0008.91,0003.61,0001.98
2022-05-07 06:06:00,,0821.1,5.01,0.00,29.5,28.4,00.0,38.5,31.3,12.3,0000.0,0009.21,0003.63,0001.97
2022-05-07 06:07:00,,0821.1,5.01,0.00,29.6,28.5,00.0,38.5,31.3,12.0,0000.0,0009.14,0003.62,0001.96
2022-05-07 06:08:00,,0821.1,5.00,0.00,29.6,28.5,00.0,38.5,31.4,12.2,0000.0,0009.21,0003.63,0001.96
2022-05-07 06:09:00,,0821.1,5.00,0.00,29.6,28.6,00.0,38.5,31.4,12.1,0000.0,0009.51,0003.61,0001.96
2022-05-07 06:10:00,,0821.1,4.99,0.00,29.6,28.6,00.0,38.5,31.4,12.1,0000.0,0010.03,0003.58,0001.96
2022-05-07 06:11:00,,0821.1,5.00,0.00,29.7,28.7,00.0,38.5,31.4,13.1,0000.0,0010.83,0003.61,0001.96
2022-05-07 06:12:00,,0821.1,5.00,0.00,29.7,28.7,00.0,38.5,31.5,12.6,0000.0,0010.88,0003.65,0001.97
2022-05-07 06:13:00,,0821.1,5.00,0.00,29.7,28.7,00.0,38.5,31.5,12.1,0000.0,0011.14,0003.72,0001.99
2022-05-07 06:14:00,,0821.1,5.00,0.00,29.7,28.7,00.0,38.5,31.5,11.8,0000.0,0011.09,0003.75,0002.01
2022-05-07 06:15:00,,0821.1,5.00,0.00,29.7,28.8,00.0,38.6,31.5,11.7,0000.0,0011.02,0003.77,0002.02
2022-05-07 06:16:00,,0821.1,4.99,0.00,29.7,28.8,00.0,38.6,31.5,11.6,0000.0,0010.81,0003.74,0002.03
2022-05-07 06:17:00,,0821.1,4.99,0.00,29.8,28.8,00.0,38.6,31.5,11.5,0000.0,0010.37,0003.67,0002.02
2022-05-07 06:18:00,,0821.1,5.01,0.00,29.8,28.8,00.0,38.6,31.5,11.5,0000.0,0010.29,0003.69,0002.03
2022-05-07 06:19:00,,0821.1,5.00,0.00,29.8,28.8,00.0,38.6,31.6,11.4,0000.0,0010.39,0003.74,0002.03
2022-05-07 06:20:00,,0821.1,4.99,0.00,29.8,28.9,00.0,38.6,31.6,11.3,0000.0,0009.97,0003.73,0002.03
2022-05-07 06:21:00,,0821.1,5.00,0.00,29.8,28.9,00.0,38.6,31.6,11.2,0000.0,0009.60,0003.73,0002.04
2022-05-07 06:22:00,,0821.2,4.99,0.00,29.8,28.9,00.0,38.7,31.6,11.2,0000.0,0009.44,0003.76,0002.05
2022-05-07 06:23:00,,0821.1,4.99,0.00,29.8,28.9,00.0,38.7,31.6,11.3,0000.0,0010.02,0003.74,0002.05
2022-05-07 06:24:00,,0821.1,5.00,0.00,29.9,28.9,00.0,38.7,31.6,11.7,0000.0,0009.66,0003.72,0002.06
2022-05-07 06:25:00,,0821.1,5.02,0.00,29.9,28.9,00.0,38.7,31.7,11.9,0000.0,0009.82,0003.78,0002.09
2022-05-07 06:26:00,,0821.1,5.01,0.00,29.9,28.9,00.0,38.7,31.7,12.0,0000.0,0010.28,0003.83,0002.12
2022-05-07 06:27:00,,0821.1,4.99,0.00,29.9,28.9,00.0,38.7,31.7,12.0,0000.0,0010.46,0003.88,0002.17
2022-05-07 06:28:00,,0821.1,5.00,0.00,29.9,29.0,00.0,38.7,31.7,11.9,0000.0,0010.71,0003.96,0002.23
2022-05-07 06:29:00,,0821.1,5.00,0.00,29.9,29.0,00.0,38.8,31.7,11.8,0000.0,0010.77,0003.97,0002.27
2022-05-07 06:30:00,,0821.1,5.01,0.00,29.9,29.0,00.0,38.8,31.7,12.0,0000.0,0011.88,0003.99,0002.32
2022-05-07 06:31:00,,0821.1,4.99,0.00,30.0,29.0,00.0,38.8,31.7,11.8,0000.0,0012.80,0004.01,0002.35
2022-05-07 06:32:00,,0821.1,5.00,0.00,30.0,29.0,00.0,38.8,31.8,11.7,0000.0,0013.17,0004.07,0002.39
2022-05-07 06:33:00,,0821.0,5.00,0.00,30.0,29.1,00.0,38.8,31.7,12.0,0000.0,0012.40,0004.11,0002.43
2022-05-07 06:34:00,,0821.1,5.00,0.00,30.0,29.1,00.0,38.8,31.8,12.1,0000.0,0011.84,0004.12,0002.46
2022-05-07 06:35:00,,0821.1,5.00,0.00,30.0,29.1,00.0,38.8,31.8,11.6,0000.0,0011.78,0004.08,0002.47
2022-05-07 06:36:00,,0821.0,5.00,0.00,30.0,29.1,00.0,38.9,31.8,11.6,0000.0,0011.66,0004.02,0002.49
2022-05-07 06:37:00,,0821.1,5.00,0.00,30.0,29.1,00.0,38.9,31.8,11.5,0000.0,0011.34,0004.02,0002.49
2022-05-07 06:38:00,,0821.1,4.99,0.00,30.0,29.1,00.0,38.9,31.8,11.4,0000.0,0011.36,0003.97,0002.47
2022-05-07 06:39:00,,0821.0,5.00,0.00,30.0,29.2,00.0,38.9,31.8,11.4,0000.0,0012.19,0003.98,0002.46
2022-05-07 06:40:00,,0821.0,5.00,0.00,30.0,29.2,00.0,38.9,31.8,11.5,0000.0,0012.85,0003.98,0002.46
2022-05-07 06:41:00,,0821.0,5.01,0.00,30.1,29.2,00.0,38.9,31.9,11.3,0000.0,0012.29,0003.96,0002.45
2022-05-07 06:42:00,,0821.0,5.01,0.00,30.1,29.2,00.0,38.9,31.8,11.8,0000.0,0011.41,0003.97,0002.46
2022-05-07 06:43:00,,0821.0,5.00,0.00,30.1,29.2,00.0,38.9,31.8,12.1,0000.0,0011.20,0003.97,0002.45
2022-05-07 06:44:00,,0821.0,5.01,0.00,30.1,29.1,00.0,39.0,31.9,12.0,0000.0,0011.11,0003.92,0002.44
2022-05-07 06:45:00,,0821.0,5.00,0.00,30.1,29.1,00.0,39.0,31.9,11.8,0000.0,0011.05,0003.90,0002.45
2022-05-07 06:46:00,,0820.9,4.99,0.00,30.1,29.1,00.0,39.0,31.8,11.7,0000.0,0011.07,0003.93,0002.45
2022-05-07 06:47:00,,0820.9,5.00,0.00,30.1,29.2,00.0,39.0,31.8,11.6,0000.0,0011.40,0003.95,0002.44
2022-05-07 06:48:00,,0820.9,5.01,0.00,30.1,29.2,00.0,39.0,31.8,11.3,0000.0,0011.58,0003.94,0002.45
2022-05-07 06:49:00,,0821.0,5.01,0.00,30.1,29.2,00.0,39.0,31.9,11.2,0000.0,0011.74,0003.98,0002.47
2022-05-07 06:50:00,,0820.9,5.01,0.00,30.1,29.2,00.0,39.0,31.9,11.2,0000.0,0010.85,0003.96,0002.46
2022-05-07 06:51:00,,0820.9,4.99,0.00,30.1,29.2,00.0,39.0,31.9,11.1,0000.0,0011.10,0003.96,0002.46
2022-05-07 06:52:00,,0820.9,4.99,0.00,30.1,29.2,00.0,39.0,31.9,11.1,0000.0,0010.31,0003.93,0002.45
2022-05-07 06:53:00,,0820.9,5.01,0.00,30.1,29.1,00.0,39.0,31.9,10.9,0000.0,0010.29,0003.93,0002.45
2022-05-07 06:54:00,,0820.8,5.01,0.00,30.1,27.2,00.0,39.0,31.4,10.8,0000.0,0010.35,0003.95,0002.45
2022-05-07 06:55:00,,0820.8,4.99,0.00,29.9,25.8,00.0,39.0,31.2,10.9,0000.0,0010.21,0003.95,0002.46
2022-05-07 06:56:00,,0820.8,5.00,0.00,29.8,25.9,00.0,38.9,31.2,11.0,0000.0,0010.35,0003.98,0002.48
2022-05-07 06:57:00,,0820.8,5.01,0.00,29.7,26.3,00.0,38.8,31.2,11.1,0000.0,0010.64,0003.95,0002.49
2022-05-07 06:58:00,,0820.8,4.99,0.00,29.7,26.8,00.0,38.8,31.2,11.1,0000.0,0010.09,0003.95,0002.49
2022-05-07 06:59:00,,0820.8,4.99,0.00,29.7,27.2,00.0,38.8,31.3,11.2,0000.0,0009.89,0003.94,0002.49
